Weather History for KMIW - April, 2012

Change the Weather History Date:

Thursday, April 26, 2012

  Actual Average Record
Temperature  
Mean Temperature 57 °F 53 °F  
Max Temperature 66 °F 65 °F - ()
Min Temperature 47 °F 41 °F - ()
Degree Days  
Heating Degree Days 8 12  
Month to date heating degree days 319 437  
Since 1 July heating degree days 5364 6738  
Cooling Degree Days 0 0  
Month to date cooling degree days 5 0  
Year to date cooling degree days 23 0  
Growing Degree Days 9 (Base 50)    
Moisture  
Dew Point 40 °F    
Average Humidity 57    
Maximum Humidity 89    
Minimum Humidity 24    
Precipitation  
Precipitation 0.00 in 0.14 in - ()
Month to date precipitation 2.93 2.78  
Year to date precipitation 5.12  
Sea Level Pressure  
Sea Level Pressure 29.96 in    
Wind  
Wind Speed 14 mph (North)    
Max Wind Speed 24 mph    
Max Gust Speed 33 mph    
Visibility 10 miles    
Events      
T = Trace of Precipitation, MM = Missing Value Source: NWS Daily Summary

Daily Weather History Graph

Daily Weather History Graph

Search for Another Location

Airport or City:

Trip Planner

Search our weather history database for the weather conditions in past years. The results will help you decide how hot, cold, wet, or windy it might be!

Date:

Astronomy

Apr. 26, 2012 Rise Set
Actual Time 6:13 AM CDT 8:05 PM CDT
Civil Twilight 5:43 AM CDT 8:35 PM CDT
Nautical Twilight 5:07 AM CDT 9:12 PM CDT
Astronomical Twilight 4:27 AM CDT 9:52 PM CDT
Moon 9:51 AM CDT (4/26) 12:13 AM CDT (4/26)
Length of Visible Light 14h 52m
Length of Day
13h 52m
Waxing Crescent, 24% of the Moon is Illuminated
Apr 26
Waxing Crescent
Apr 29
First Quarter
May 5
Full
May 12
Last Quarter
May 20
New

Hourly Weather History & Observations

Time (CDT) Temp. Dew Point Humidity Pressure Visibility Wind Dir Wind Speed Gust Speed Precip Events Conditions
12:53 AM 55.0 °F 50.0 °F 83% 29.73 in 10.0 mi NW 5.8 mph - N/A   Clear
1:53 AM 53.1 °F 48.9 °F 86% 29.74 in 10.0 mi WNW 4.6 mph - N/A   Clear
2:53 AM 52.0 °F 48.9 °F 89% 29.76 in 10.0 mi WNW 5.8 mph - N/A   Clear
4:53 AM 53.1 °F 48.9 °F 86% 29.80 in 9.0 mi NW 9.2 mph - N/A   Clear
5:53 AM 55.0 °F 50.0 °F 83% 29.82 in 10.0 mi North 18.4 mph - N/A   Clear
6:53 AM 53.1 °F 48.9 °F 86% 29.88 in 7.0 mi North 16.1 mph - N/A   Clear
7:44 AM 53.6 °F 48.2 °F 82% 29.94 in 8.0 mi North 23.0 mph 29.9 mph N/A   Mostly Cloudy
7:53 AM 52.0 °F 46.9 °F 83% 29.94 in 10.0 mi North 23.0 mph - N/A   Overcast
8:45 AM 53.6 °F 44.6 °F 72% 29.97 in 10.0 mi NNE 18.4 mph - N/A   Partly Cloudy
8:53 AM 55.0 °F 44.1 °F 67% 29.96 in 10.0 mi NNE 20.7 mph - N/A   Partly Cloudy
9:53 AM 57.0 °F 41.0 °F 55% 29.98 in 10.0 mi North 21.9 mph 26.5 mph N/A   Clear
10:53 AM 59.0 °F 39.9 °F 49% 30.01 in 10.0 mi North 18.4 mph - N/A   Clear
11:53 AM 61.0 °F 37.9 °F 42% 30.02 in 10.0 mi NNE 19.6 mph 24.2 mph N/A   Clear
12:53 PM 63.0 °F 37.0 °F 38% 30.04 in 10.0 mi North 17.3 mph 24.2 mph N/A   Clear
1:53 PM 63.0 °F 34.0 °F 34% 30.04 in 10.0 mi NNE 13.8 mph 24.2 mph N/A   Clear
2:53 PM 64.0 °F 33.1 °F 31% 30.04 in 10.0 mi North 10.4 mph - N/A   Clear
3:53 PM 66.0 °F 28.9 °F 25% 30.04 in 10.0 mi North 17.3 mph 24.2 mph N/A   Clear
4:53 PM 64.9 °F 27.0 °F 24% 30.04 in 10.0 mi North 10.4 mph - N/A   Clear
5:53 PM 64.0 °F 28.9 °F 27% 30.04 in 10.0 mi North 10.4 mph - N/A   Clear
6:53 PM 61.0 °F 30.0 °F 31% 30.05 in 10.0 mi NNE 10.4 mph - N/A   Clear
7:53 PM 57.9 °F 30.9 °F 36% 30.06 in 10.0 mi NE 12.7 mph - N/A   Clear
8:53 PM 53.1 °F 30.0 °F 41% 30.06 in 10.0 mi NE 10.4 mph - N/A   Clear
11:53 PM 46.9 °F 30.9 °F 54% 30.11 in 10.0 mi ENE 11.5 mph - N/A   Clear